AAL904 KMKE-KMSY

Flight info

Callsign AAL904
Flight time 2h 1m
Altitude 34000
Route ACCRA5 ACCRA BACEN BLOKR BEKKI ENL J71 MEM J35 SQS/N0449F350 J35 MCB TRSSH1
Aircraft A321/M-SDE3FGHIRWY/LB1

Departure

Time 2026-04-23 22:12
Airport General Mitchell International Airport (KMKE)

Arrival

Time 2026-04-24 00:14
Airport Louis Armstrong New Orleans International Airport (KMSY)
Time Latitude Longitude Altitude Speed Heading
2026-04-23 21:34 42.95112 -87.90112 688 ft 0 kts 166°
2026-04-23 21:54 42.95120 -87.90115 682 ft 2 kts 166°
2026-04-23 21:54 42.95136 -87.90120 684 ft 2 kts 165°
2026-04-23 21:55 42.95151 -87.90129 681 ft 2 kts 133°
2026-04-23 21:55 42.95160 -87.90147 682 ft 2 kts 99°
2026-04-23 21:55 42.95160 -87.90170 681 ft 3 kts 65°
2026-04-23 21:55 42.95155 -87.90182 682 ft 1 kts 42°
2026-04-23 21:56 42.95151 -87.90186 683 ft 0 kts 42°
2026-04-23 22:03 42.95152 -87.90184 682 ft 1 kts 42°
2026-04-23 22:03 42.95161 -87.90174 681 ft 3 kts 42°
2026-04-23 22:03 42.95183 -87.90147 676 ft 5 kts 42°
2026-04-23 22:04 42.95207 -87.90111 684 ft 5 kts 61°
2026-04-23 22:04 42.95207 -87.90084 684 ft 0 kts 96°
2026-04-23 22:06 42.95206 -87.90076 684 ft 3 kts 98°
2026-04-23 22:06 42.95196 -87.90040 688 ft 4 kts 118°
2026-04-23 22:06 42.95176 -87.90004 687 ft 5 kts 128°
2026-04-23 22:07 42.95147 -87.89958 681 ft 7 kts 132°
2026-04-23 22:07 42.95110 -87.89902 686 ft 9 kts 133°
2026-04-23 22:07 42.95067 -87.89838 685 ft 10 kts 127°
2026-04-23 22:07 42.95081 -87.89760 688 ft 10 kts 39°
2026-04-23 22:08 42.95142 -87.89716 685 ft 10 kts 27°
2026-04-23 22:08 42.95207 -87.89671 686 ft 11 kts 27°
2026-04-23 22:08 42.95276 -87.89623 681 ft 11 kts 27°
2026-04-23 22:08 42.95349 -87.89572 682 ft 12 kts 27°
2026-04-23 22:09 42.95426 -87.89521 685 ft 13 kts 21°
2026-04-23 22:09 42.95512 -87.89492 686 ft 13 kts
2026-04-23 22:09 42.95603 -87.89480 686 ft 13 kts
2026-04-23 22:09 42.95696 -87.89464 686 ft 11 kts 12°
2026-04-23 22:10 42.95746 -87.89398 688 ft 11 kts 82°
2026-04-23 22:10 42.95714 -87.89314 684 ft 10 kts 158°
2026-04-23 22:10 42.95668 -87.89316 684 ft 0 kts 190°
2026-04-23 22:11 42.95664 -87.89317 683 ft 3 kts 190°
2026-04-23 22:12 42.95475 -87.89353 684 ft 62 kts 185°
2026-04-23 22:12 42.94829 -87.89461 685 ft 123 kts 187°
2026-04-23 22:12 42.93829 -87.89604 892 ft 152 kts 184°
2026-04-23 22:12 42.92803 -87.89793 1666 ft 146 kts 186°
2026-04-23 22:13 42.91829 -87.90031 2430 ft 139 kts 191°
2026-04-23 22:13 42.90900 -87.90451 3007 ft 146 kts 199°
2026-04-23 22:13 42.89945 -87.91167 3324 ft 170 kts 214°
2026-04-23 22:13 42.88954 -87.92264 3648 ft 193 kts 218°
2026-04-23 22:14 42.87868 -87.93539 3910 ft 220 kts 219°
2026-04-23 22:14 42.86649 -87.94976 4412 ft 243 kts 219°
2026-04-23 22:14 42.85339 -87.96509 5186 ft 252 kts 219°
2026-04-23 22:14 42.83993 -87.98069 6133 ft 256 kts 219°
2026-04-23 22:15 42.82628 -87.99639 6817 ft 259 kts 219°
2026-04-23 22:15 42.81242 -88.01229 7493 ft 262 kts 219°
2026-04-23 22:15 42.79837 -88.02836 8127 ft 265 kts 219°
2026-04-23 22:15 42.78410 -88.04465 8755 ft 270 kts 219°
2026-04-23 22:16 42.76963 -88.06112 9394 ft 273 kts 219°
2026-04-23 22:16 42.75498 -88.07778 9996 ft 276 kts 220°
2026-04-23 22:16 42.73991 -88.09489 10322 ft 292 kts 219°
2026-04-23 22:16 42.72381 -88.11317 10447 ft 312 kts 220°
2026-04-23 22:17 42.70539 -88.13040 10634 ft 330 kts 208°
2026-04-23 22:17 42.68377 -88.14187 11089 ft 338 kts 196°
2026-04-23 22:17 42.66028 -88.14653 11633 ft 344 kts 183°
2026-04-23 22:17 42.63618 -88.14644 12187 ft 349 kts 181°
2026-04-23 22:18 42.61177 -88.14628 12741 ft 353 kts 182°
2026-04-23 22:18 42.58706 -88.14616 13305 ft 357 kts 182°
2026-04-23 22:18 42.56211 -88.14606 13835 ft 361 kts 182°
2026-04-23 22:18 42.53685 -88.14587 14349 ft 364 kts 181°
2026-04-23 22:19 42.51138 -88.14517 14858 ft 368 kts 181°
2026-04-23 22:19 42.48566 -88.14409 15372 ft 371 kts 180°
2026-04-23 22:19 42.45969 -88.14287 15886 ft 375 kts 180°
2026-04-23 22:19 42.43354 -88.14164 16409 ft 378 kts 180°
2026-04-23 22:20 42.40720 -88.13896 16909 ft 383 kts 173°
2026-04-23 22:20 42.38091 -88.13201 17391 ft 387 kts 171°
2026-04-23 22:20 42.35439 -88.12482 17911 ft 390 kts 171°
2026-04-23 22:20 42.32765 -88.11758 18362 ft 394 kts 171°
2026-04-23 22:21 42.30068 -88.11030 18776 ft 397 kts 171°
2026-04-23 22:21 42.27341 -88.10316 19206 ft 400 kts 171°
2026-04-23 22:21 42.24555 -88.09615 19642 ft 404 kts 172°
2026-04-23 22:21 42.21780 -88.08933 20087 ft 407 kts 172°
2026-04-23 22:22 42.18983 -88.08253 20515 ft 410 kts 172°
2026-04-23 22:22 42.16168 -88.07564 20947 ft 413 kts 172°
2026-04-23 22:22 42.13324 -88.06862 21363 ft 416 kts 172°
2026-04-23 22:22 42.10470 -88.06149 21774 ft 419 kts 172°
2026-04-23 22:23 42.07593 -88.05425 22178 ft 422 kts 172°
2026-04-23 22:23 42.04695 -88.04695 22574 ft 425 kts 172°
2026-04-23 22:23 42.01783 -88.03970 22951 ft 427 kts 172°
2026-04-23 22:23 41.98844 -88.03253 23341 ft 430 kts 172°
2026-04-23 22:24 41.95892 -88.02548 23675 ft 432 kts 172°
2026-04-23 22:24 41.92907 -88.02013 23988 ft 432 kts 180°
2026-04-23 22:24 41.89906 -88.02017 24317 ft 433 kts 184°
2026-04-23 22:24 41.86889 -88.02094 24638 ft 435 kts 184°
2026-04-23 22:25 41.83859 -88.02160 24949 ft 437 kts 183°
2026-04-23 22:25 41.80814 -88.02216 25270 ft 439 kts 183°
2026-04-23 22:25 41.77752 -88.02268 25594 ft 441 kts 183°
2026-04-23 22:25 41.74677 -88.02321 25905 ft 443 kts 183°
2026-04-23 22:26 41.71590 -88.02378 26206 ft 445 kts 183°
2026-04-23 22:26 41.68489 -88.02433 26505 ft 447 kts 183°
2026-04-23 22:26 41.65373 -88.02492 26809 ft 449 kts 183°
2026-04-23 22:26 41.62247 -88.02552 27109 ft 451 kts 183°
2026-04-23 22:27 41.59104 -88.02612 27396 ft 453 kts 183°
2026-04-23 22:27 41.55944 -88.02674 27677 ft 455 kts 183°
2026-04-23 22:27 41.52774 -88.02734 27950 ft 457 kts 183°
2026-04-23 22:27 41.49587 -88.02794 28210 ft 459 kts 183°
2026-04-23 22:28 41.46387 -88.02855 28473 ft 461 kts 183°
2026-04-23 22:28 41.43176 -88.02921 28736 ft 463 kts 184°
2026-04-23 22:28 41.39972 -88.03303 28993 ft 461 kts 193°
2026-04-23 22:28 41.36856 -88.04278 29257 ft 461 kts 197°
2026-04-23 22:29 41.33742 -88.05361 29505 ft 463 kts 197°
2026-04-23 22:29 41.30572 -88.06451 29786 ft 465 kts 197°
2026-04-23 22:29 41.27436 -88.07515 30109 ft 465 kts 197°
2026-04-23 22:29 41.24305 -88.08566 30459 ft 464 kts 197°
2026-04-23 22:30 41.21167 -88.09553 30778 ft 463 kts 195°
2026-04-23 22:30 41.18017 -88.10466 31095 ft 463 kts 195°
2026-04-23 22:30 41.14864 -88.11334 31407 ft 462 kts 194°
2026-04-23 22:30 41.11714 -88.12188 31722 ft 461 kts 194°
2026-04-23 22:31 41.08572 -88.13051 32022 ft 461 kts 195°
2026-04-23 22:31 41.05442 -88.13927 32321 ft 460 kts 195°
2026-04-23 22:31 41.03366 -88.14516 32520 ft 460 kts 195°
2026-04-23 22:31 41.00246 -88.15409 32819 ft 459 kts 195°
2026-04-23 22:32 40.97130 -88.16305 33105 ft 458 kts 195°
2026-04-23 22:32 40.94014 -88.17202 33391 ft 458 kts 195°
2026-04-23 22:32 40.90906 -88.18092 33678 ft 457 kts 195°
2026-04-23 22:32 40.87798 -88.18978 33834 ft 457 kts 195°
2026-04-23 22:33 40.81610 -88.20740 33866 ft 454 kts 195°
2026-04-23 22:33 40.75437 -88.22495 33869 ft 454 kts 195°
2026-04-23 22:34 40.69263 -88.24243 33875 ft 454 kts 195°
2026-04-23 22:34 40.63044 -88.25999 33873 ft 454 kts 195°
2026-04-23 22:35 40.56859 -88.27737 33878 ft 455 kts 195°
2026-04-23 22:35 40.50670 -88.29483 33881 ft 455 kts 195°
2026-04-23 22:36 40.44478 -88.31232 33881 ft 455 kts 195°
2026-04-23 22:36 40.38280 -88.32982 33885 ft 456 kts 195°
2026-04-23 22:37 40.32074 -88.34741 33886 ft 455 kts 198°
2026-04-23 22:37 40.26071 -88.37289 33892 ft 454 kts 202°
2026-04-23 22:38 40.20084 -88.39922 33897 ft 454 kts 202°
2026-04-23 22:38 40.14089 -88.42549 33902 ft 454 kts 202°
2026-04-23 22:39 40.08090 -88.45176 33902 ft 455 kts 202°
2026-04-23 22:39 40.02087 -88.47796 33905 ft 455 kts 201°
2026-04-23 22:40 39.96075 -88.50406 33905 ft 455 kts 201°
2026-04-23 22:41 39.87055 -88.54325 33898 ft 456 kts 201°
2026-04-23 22:41 39.81036 -88.56931 33897 ft 456 kts 201°
2026-04-23 22:42 39.75014 -88.59533 33898 ft 456 kts 201°
2026-04-23 22:42 39.68947 -88.62148 33901 ft 456 kts 201°
2026-04-23 22:43 39.62915 -88.64758 33905 ft 457 kts 201°
2026-04-23 22:43 39.56885 -88.67361 33905 ft 457 kts 201°
2026-04-23 22:44 39.50853 -88.69956 33926 ft 457 kts 201°
2026-04-23 22:44 39.44813 -88.72540 33912 ft 457 kts 201°
2026-04-23 22:45 39.38774 -88.75127 33917 ft 457 kts 201°
2026-04-23 22:45 39.32735 -88.77703 33915 ft 457 kts 201°
2026-04-23 22:46 39.26695 -88.80276 33917 ft 457 kts 201°
2026-04-23 22:46 39.20649 -88.82845 33918 ft 457 kts 201°
2026-04-23 22:47 39.14609 -88.85415 33910 ft 457 kts 201°
2026-04-23 22:47 39.08562 -88.87980 33915 ft 457 kts 201°
2026-04-23 22:48 39.02520 -88.90544 33916 ft 457 kts 201°
2026-04-23 22:48 38.96471 -88.93099 33928 ft 458 kts 201°
2026-04-23 22:49 38.90420 -88.95647 33926 ft 458 kts 201°
2026-04-23 22:49 38.84366 -88.98194 33925 ft 458 kts 201°
2026-04-23 22:50 38.78308 -89.00740 33914 ft 458 kts 201°
2026-04-23 22:50 38.72213 -89.03293 33916 ft 458 kts 201°
2026-04-23 22:51 38.66149 -89.05828 33909 ft 458 kts 201°
2026-04-23 22:51 38.60206 -89.08307 33897 ft 436 kts 200°
2026-04-23 22:52 38.54494 -89.10691 33901 ft 429 kts 201°
2026-04-23 22:52 38.48817 -89.13061 33905 ft 429 kts 201°
2026-04-23 22:53 38.43146 -89.15425 33903 ft 428 kts 200°
2026-04-23 22:53 38.37312 -89.17092 33912 ft 431 kts 194°
2026-04-23 22:54 38.31430 -89.18570 33914 ft 431 kts 194°
2026-04-23 22:54 38.25545 -89.20058 33919 ft 431 kts 194°
2026-04-23 22:55 38.19655 -89.21550 33924 ft 431 kts 194°
2026-04-23 22:55 38.13763 -89.23039 33925 ft 432 kts 194°
2026-04-23 22:56 38.07871 -89.24517 33926 ft 432 kts 194°
2026-04-23 22:56 38.01980 -89.25993 33930 ft 432 kts 194°
2026-04-23 22:57 37.96083 -89.27468 33933 ft 432 kts 194°
2026-04-23 22:57 37.90187 -89.28942 33932 ft 432 kts 194°
2026-04-23 22:58 37.84243 -89.30426 33933 ft 432 kts 194°
2026-04-23 22:58 37.78342 -89.31901 33931 ft 432 kts 194°
2026-04-23 22:59 37.72441 -89.33369 33937 ft 432 kts 194°
2026-04-23 22:59 37.66538 -89.34836 33932 ft 432 kts 194°
2026-04-23 23:00 37.60639 -89.36297 33931 ft 432 kts 194°
2026-04-23 23:00 37.54741 -89.37758 33931 ft 432 kts 194°
2026-04-23 23:01 37.48837 -89.39219 33934 ft 432 kts 194°
2026-04-23 23:01 37.42940 -89.40670 33933 ft 432 kts 194°
2026-04-23 23:02 37.37043 -89.42116 33926 ft 432 kts 194°
2026-04-23 23:02 37.31147 -89.43568 33921 ft 432 kts 194°
2026-04-23 23:03 37.25252 -89.45019 33925 ft 432 kts 194°
2026-04-23 23:03 37.19359 -89.46469 33919 ft 432 kts 194°
2026-04-23 23:04 37.13457 -89.47915 33911 ft 432 kts 194°
2026-04-23 23:04 37.08517 -89.49116 33922 ft 432 kts 194°
2026-04-23 23:05 37.02615 -89.50551 33923 ft 432 kts 194°
2026-04-23 23:05 36.96721 -89.51996 33926 ft 432 kts 194°
2026-04-23 23:06 36.90823 -89.53434 33931 ft 432 kts 194°
2026-04-23 23:06 36.84928 -89.54870 33931 ft 432 kts 194°
2026-04-23 23:07 36.79030 -89.56301 33925 ft 432 kts 194°
2026-04-23 23:07 36.73126 -89.57726 33931 ft 432 kts 194°
2026-04-23 23:08 36.67225 -89.59143 33931 ft 432 kts 194°
2026-04-23 23:08 36.61319 -89.60562 33944 ft 432 kts 194°
2026-04-23 23:09 36.55407 -89.61980 33946 ft 433 kts 194°
2026-04-23 23:09 36.49457 -89.63407 33946 ft 433 kts 194°
2026-04-23 23:10 36.43540 -89.64834 33955 ft 433 kts 194°
2026-04-23 23:10 36.37621 -89.66262 33955 ft 433 kts 194°
2026-04-23 23:11 36.31699 -89.67677 33951 ft 434 kts 194°
2026-04-23 23:11 36.25777 -89.69086 33947 ft 434 kts 193°
2026-04-23 23:12 36.19801 -89.70506 33945 ft 443 kts 192°
2026-04-23 23:12 36.13657 -89.71975 33939 ft 456 kts 192°
2026-04-23 23:13 36.07340 -89.73482 33942 ft 466 kts 192°
2026-04-23 23:13 36.00956 -89.74999 33931 ft 468 kts 192°
2026-04-23 23:14 35.94568 -89.76516 33933 ft 468 kts 192°
2026-04-23 23:14 35.88179 -89.78025 33933 ft 467 kts 192°
2026-04-23 23:15 35.81790 -89.79533 33934 ft 467 kts 192°
2026-04-23 23:15 35.75404 -89.81043 33944 ft 467 kts 192°
2026-04-23 23:16 35.68972 -89.82557 33947 ft 467 kts 192°
2026-04-23 23:16 35.62586 -89.84060 33953 ft 467 kts 192°
2026-04-23 23:17 35.56207 -89.85564 33956 ft 467 kts 192°
2026-04-23 23:17 35.49837 -89.87073 33957 ft 466 kts 192°
2026-04-23 23:18 35.43464 -89.88565 33963 ft 466 kts 192°
2026-04-23 23:18 35.37088 -89.90046 33959 ft 466 kts 192°
2026-04-23 23:19 35.30717 -89.91529 33958 ft 466 kts 192°
2026-04-23 23:19 35.24356 -89.93019 33957 ft 465 kts 192°
2026-04-23 23:20 35.18002 -89.94504 33973 ft 465 kts 192°
2026-04-23 23:20 35.11646 -89.95977 33977 ft 465 kts 192°
2026-04-23 23:21 35.05300 -89.97443 33978 ft 464 kts 192°
2026-04-23 23:21 34.98954 -89.98891 33977 ft 464 kts 191°
2026-04-23 23:22 34.92530 -89.99727 33975 ft 464 kts 185°
2026-04-23 23:22 34.86093 -90.00267 33972 ft 464 kts 185°
2026-04-23 23:23 34.79653 -90.00774 33972 ft 463 kts 185°
2026-04-23 23:23 34.73180 -90.01319 33964 ft 463 kts 185°
2026-04-23 23:24 34.66759 -90.01868 33962 ft 463 kts 185°
2026-04-23 23:24 34.60335 -90.02423 33971 ft 462 kts 185°
2026-04-23 23:25 34.53926 -90.02975 33973 ft 462 kts 185°
2026-04-23 23:25 34.47516 -90.03523 33977 ft 461 kts 185°
2026-04-23 23:26 34.41114 -90.04057 33974 ft 461 kts 185°
2026-04-23 23:26 34.34712 -90.04591 33972 ft 461 kts 185°
2026-04-23 23:27 34.28314 -90.05136 33973 ft 461 kts 185°
2026-04-23 23:27 34.21922 -90.05684 33969 ft 461 kts 185°
2026-04-23 23:28 34.15528 -90.06228 33968 ft 460 kts 185°
2026-04-23 23:28 34.09143 -90.06759 33971 ft 460 kts 185°
2026-04-23 23:29 34.02759 -90.07295 33966 ft 460 kts 185°
2026-04-23 23:29 33.96341 -90.07844 33964 ft 459 kts 185°
2026-04-23 23:30 33.89968 -90.08380 33966 ft 459 kts 185°
2026-04-23 23:30 33.83598 -90.08911 33967 ft 459 kts 185°
2026-04-23 23:31 33.77236 -90.09435 33973 ft 458 kts 185°
2026-04-23 23:31 33.70878 -90.09958 33972 ft 458 kts 185°
2026-04-23 23:32 33.64570 -90.10471 33945 ft 448 kts 187°
2026-04-23 23:32 33.58371 -90.10990 33960 ft 446 kts 187°
2026-04-23 23:33 33.52191 -90.11516 33957 ft 445 kts 187°
2026-04-23 23:33 33.46002 -90.12034 33956 ft 446 kts 187°
2026-04-23 23:34 33.39811 -90.12546 33955 ft 446 kts 187°
2026-04-23 23:34 33.33619 -90.13064 33957 ft 446 kts 187°
2026-04-23 23:35 33.27423 -90.13583 33955 ft 446 kts 187°
2026-04-23 23:35 33.21226 -90.14091 33953 ft 447 kts 187°
2026-04-23 23:36 33.14981 -90.14599 33950 ft 447 kts 187°
2026-04-23 23:36 33.09827 -90.15027 33948 ft 447 kts 187°
2026-04-23 23:37 33.03615 -90.15544 33948 ft 447 kts 187°
2026-04-23 23:37 32.97405 -90.16052 33946 ft 448 kts 187°
2026-04-23 23:38 32.91190 -90.16561 33944 ft 448 kts 187°
2026-04-23 23:38 32.84972 -90.17079 33947 ft 448 kts 187°
2026-04-23 23:39 32.78748 -90.17590 33944 ft 448 kts 187°
2026-04-23 23:39 32.72520 -90.18097 33949 ft 449 kts 187°
2026-04-23 23:40 32.66283 -90.18600 33956 ft 449 kts 187°
2026-04-23 23:40 32.60005 -90.19111 33957 ft 449 kts 187°
2026-04-23 23:41 32.53768 -90.19618 33958 ft 450 kts 187°
2026-04-23 23:41 32.47525 -90.20122 33960 ft 450 kts 187°
2026-04-23 23:42 32.41279 -90.20636 33970 ft 450 kts 187°
2026-04-23 23:42 32.35029 -90.21146 33969 ft 450 kts 187°
2026-04-23 23:43 32.28769 -90.21641 33971 ft 451 kts 187°
2026-04-23 23:43 32.22513 -90.22153 33963 ft 451 kts 187°
2026-04-23 23:44 32.16251 -90.22665 33965 ft 451 kts 187°
2026-04-23 23:44 32.09987 -90.23167 33959 ft 452 kts 187°
2026-04-23 23:45 32.03713 -90.23669 33957 ft 452 kts 187°
2026-04-23 23:45 32.00582 -90.23917 33749 ft 447 kts 187°
2026-04-23 23:45 31.97506 -90.24160 33442 ft 440 kts 187°
2026-04-23 23:45 31.94460 -90.24402 32955 ft 437 kts 188°
2026-04-23 23:46 31.91435 -90.24644 32468 ft 434 kts 187°
2026-04-23 23:46 31.88432 -90.24887 31991 ft 432 kts 187°
2026-04-23 23:46 31.85445 -90.25131 31504 ft 429 kts 187°
2026-04-23 23:46 31.82435 -90.25375 31029 ft 427 kts 187°
2026-04-23 23:47 31.79476 -90.25611 30562 ft 425 kts 187°
2026-04-23 23:47 31.76532 -90.25846 30090 ft 423 kts 187°
2026-04-23 23:47 31.73601 -90.26080 29591 ft 421 kts 187°
2026-04-23 23:47 31.70690 -90.26272 29155 ft 417 kts 185°
2026-04-23 23:48 31.67796 -90.26329 28717 ft 415 kts 183°
2026-04-23 23:48 31.64916 -90.26288 28282 ft 412 kts 182°
2026-04-23 23:48 31.62056 -90.26205 27875 ft 410 kts 182°
2026-04-23 23:48 31.59221 -90.26119 27468 ft 407 kts 182°
2026-04-23 23:49 31.53586 -90.26004 26666 ft 403 kts 183°
2026-04-23 23:49 31.50791 -90.25975 26260 ft 401 kts 183°
2026-04-23 23:49 31.48013 -90.25958 25860 ft 398 kts 183°
2026-04-23 23:50 31.45248 -90.25947 25447 ft 397 kts 183°
2026-04-23 23:50 31.42490 -90.25932 25043 ft 395 kts 183°
2026-04-23 23:50 31.39745 -90.25911 24620 ft 394 kts 183°
2026-04-23 23:50 31.37005 -90.25887 24197 ft 393 kts 183°
2026-04-23 23:51 31.34273 -90.25859 23779 ft 393 kts 182°
2026-04-23 23:51 31.31542 -90.25833 23308 ft 392 kts 182°
2026-04-23 23:51 31.28821 -90.25776 22862 ft 390 kts 181°
2026-04-23 23:51 31.26118 -90.25622 22424 ft 388 kts 179°
2026-04-23 23:52 31.23432 -90.25407 21989 ft 385 kts 178°
2026-04-23 23:52 31.20768 -90.25171 21560 ft 383 kts 178°
2026-04-23 23:52 31.18118 -90.24936 21124 ft 381 kts 178°
2026-04-23 23:52 31.15483 -90.24715 20692 ft 379 kts 178°
2026-04-23 23:53 31.12862 -90.24509 20262 ft 377 kts 179°
2026-04-23 23:53 31.10248 -90.24314 19833 ft 375 kts 179°
2026-04-23 23:53 31.07615 -90.24122 19402 ft 374 kts 179°
2026-04-23 23:53 31.05026 -90.23933 18975 ft 372 kts 179°
2026-04-23 23:54 31.02450 -90.23748 18552 ft 370 kts 178°
2026-04-23 23:54 30.99880 -90.23563 18102 ft 369 kts 178°
2026-04-23 23:54 30.97325 -90.23376 17660 ft 366 kts 178°
2026-04-23 23:54 30.94799 -90.23191 17241 ft 363 kts 178°
2026-04-23 23:55 30.92289 -90.23007 16830 ft 359 kts 178°
2026-04-23 23:55 30.89807 -90.22828 16413 ft 357 kts 178°
2026-04-23 23:55 30.87338 -90.22649 16001 ft 354 kts 178°
2026-04-23 23:55 30.84887 -90.22473 15588 ft 352 kts 178°
2026-04-23 23:56 30.82454 -90.22296 15183 ft 349 kts 178°
2026-04-23 23:56 30.80035 -90.22116 14774 ft 347 kts 178°
2026-04-23 23:56 30.77632 -90.21936 14373 ft 345 kts 178°
2026-04-23 23:56 30.75243 -90.21761 13968 ft 343 kts 178°
2026-04-23 23:57 30.72869 -90.21591 13543 ft 341 kts 178°
2026-04-23 23:57 30.70510 -90.21422 13131 ft 338 kts 178°
2026-04-23 23:57 30.68175 -90.21252 12736 ft 334 kts 178°
2026-04-23 23:57 30.65865 -90.21080 12341 ft 331 kts 178°
2026-04-23 23:58 30.63573 -90.20908 11965 ft 329 kts 178°
2026-04-23 23:58 30.61298 -90.20739 11566 ft 326 kts 178°
2026-04-23 23:58 30.59040 -90.20575 11174 ft 324 kts 179°
2026-04-23 23:58 30.56844 -90.20848 10888 ft 313 kts 201°
2026-04-23 23:59 30.55027 -90.22082 10762 ft 297 kts 224°
2026-04-23 23:59 30.53592 -90.23740 10644 ft 286 kts 228°
2026-04-23 23:59 30.52254 -90.25389 10522 ft 276 kts 228°
2026-04-23 23:59 30.50971 -90.26987 10400 ft 266 kts 228°
2026-04-24 00:00 30.49742 -90.28521 10267 ft 255 kts 228°
2026-04-24 00:00 30.48548 -90.30015 9952 ft 251 kts 228°
2026-04-24 00:00 30.47354 -90.31517 9579 ft 249 kts 228°
2026-04-24 00:00 30.46191 -90.32992 9206 ft 247 kts 228°
2026-04-24 00:01 30.45045 -90.34460 8840 ft 245 kts 228°
2026-04-24 00:01 30.43916 -90.35921 8479 ft 243 kts 228°
2026-04-24 00:01 30.42798 -90.37379 8130 ft 241 kts 228°
2026-04-24 00:01 30.41695 -90.38830 7782 ft 239 kts 229°
2026-04-24 00:02 30.40610 -90.40274 7423 ft 237 kts 229°
2026-04-24 00:02 30.39537 -90.41716 7077 ft 236 kts 228°
2026-04-24 00:02 30.38477 -90.43156 6736 ft 234 kts 229°
2026-04-24 00:02 30.37426 -90.44593 6388 ft 233 kts 229°
2026-04-24 00:03 30.36391 -90.46021 6053 ft 231 kts 228°
2026-04-24 00:03 30.35366 -90.47444 5715 ft 229 kts 228°
2026-04-24 00:03 30.34354 -90.48856 5381 ft 226 kts 229°
2026-04-24 00:03 30.33355 -90.50252 5059 ft 224 kts 227°
2026-04-24 00:04 30.32119 -90.51256 5011 ft 219 kts 195°
2026-04-24 00:04 30.30615 -90.51463 5007 ft 218 kts 180°
2026-04-24 00:04 30.29095 -90.51466 4996 ft 218 kts 179°
2026-04-24 00:04 30.27593 -90.51444 4730 ft 215 kts 178°
2026-04-24 00:05 30.26099 -90.51423 4394 ft 214 kts 178°
2026-04-24 00:05 30.24623 -90.51412 4063 ft 211 kts 178°
2026-04-24 00:05 30.23154 -90.51411 3739 ft 211 kts 178°
2026-04-24 00:05 30.21694 -90.51420 3407 ft 209 kts 178°
2026-04-24 00:06 30.20251 -90.51440 3100 ft 207 kts 178°
2026-04-24 00:06 30.18810 -90.51460 2997 ft 207 kts 178°
2026-04-24 00:06 30.17372 -90.51490 3008 ft 207 kts 179°
2026-04-24 00:06 30.15926 -90.51513 3010 ft 208 kts 179°
2026-04-24 00:07 30.14482 -90.51535 3007 ft 209 kts 178°
2026-04-24 00:07 30.13029 -90.51558 3010 ft 209 kts 178°
2026-04-24 00:07 30.11549 -90.51590 3007 ft 210 kts 178°
2026-04-24 00:07 30.10097 -90.51619 3003 ft 203 kts 179°
2026-04-24 00:08 30.08733 -90.51647 3022 ft 192 kts 179°
2026-04-24 00:08 30.07421 -90.51593 3016 ft 186 kts 168°
2026-04-24 00:08 30.06218 -90.51084 3007 ft 184 kts 149°
2026-04-24 00:08 30.05247 -90.50131 3010 ft 184 kts 130°
2026-04-24 00:09 30.04792 -90.49316 3004 ft 179 kts 117°
2026-04-24 00:09 30.04416 -90.47998 2999 ft 168 kts 107°
2026-04-24 00:09 30.04112 -90.46725 2953 ft 163 kts 108°
2026-04-24 00:09 30.03815 -90.45482 2794 ft 160 kts 107°
2026-04-24 00:10 30.03521 -90.44253 2613 ft 158 kts 108°
2026-04-24 00:10 30.03226 -90.43024 2430 ft 159 kts 108°
2026-04-24 00:10 30.02932 -90.41795 2236 ft 159 kts 108°
2026-04-24 00:10 30.02639 -90.40573 2059 ft 157 kts 107°
2026-04-24 00:11 30.02349 -90.39359 1860 ft 156 kts 107°
2026-04-24 00:11 30.02059 -90.38152 1665 ft 156 kts 107°
2026-04-24 00:11 30.01772 -90.36954 1459 ft 154 kts 108°
2026-04-24 00:11 30.01487 -90.35767 1281 ft 153 kts 107°
2026-04-24 00:12 30.01206 -90.34585 1092 ft 153 kts 107°
2026-04-24 00:12 30.00935 -90.33413 900 ft 152 kts 108°
2026-04-24 00:12 30.00645 -90.32214 691 ft 153 kts 108°
2026-04-24 00:12 30.00360 -90.31050 502 ft 155 kts 107°
2026-04-24 00:13 30.00071 -90.29837 315 ft 154 kts 108°
2026-04-24 00:13 29.99799 -90.28667 154 ft 148 kts 108°
2026-04-24 00:13 29.99518 -90.27547 8 ft 140 kts 109°
2026-04-24 00:13 29.99286 -90.26619 9 ft 101 kts 104°
2026-04-24 00:14 29.99171 -90.26143 5 ft 45 kts 107°
2026-04-24 00:14 29.99100 -90.25880 8 ft 31 kts 108°
2026-04-24 00:14 29.99018 -90.25715 9 ft 5 kts 130°
2026-04-24 00:14 29.98997 -90.25687 12 ft 5 kts 135°
2026-04-24 00:15 29.98962 -90.25675 11 ft 8 kts 184°
2026-04-24 00:15 29.98935 -90.25726 11 ft 8 kts 278°
2026-04-24 00:15 29.98961 -90.25796 10 ft 11 kts 289°
2026-04-24 00:15 29.98969 -90.25883 8 ft 12 kts 285°
2026-04-24 00:16 29.98982 -90.25971 8 ft 9 kts 258°
2026-04-24 00:16 29.98942 -90.26001 8 ft 7 kts 163°
2026-04-24 00:16 29.98901 -90.25979 9 ft 6 kts 154°
2026-04-24 00:16 29.98862 -90.25960 11 ft 6 kts 158°
2026-04-24 00:17 29.98848 -90.25953 11 ft 1 kts 158°
2026-04-24 00:17 29.98847 -90.25953 11 ft 0 kts 158°